sat.trackr.live / text

‹ back to catalog

STARLINK-32001

NORAD 60110 · 2024-117V

PAYLOAD ACTIVE UNKNOWN

§ Identity

Operator
Country
US
Launch date
2024-06-23
Launch site
AFETR
Launch vehicle
Mass (kg)
RCS (m²)

Purposes: comms

External: N2YO · Heavens-Above · Gunter

§ Orbital elements

Epoch: 2026-09-21T11:30:22.305312Z

Period
93.85 min
Inclination
53.1585°
Eccentricity
0.0001259
Mean motion
15.34393980 rev/d
Perigee alt
461.9 km
Apogee alt
463.6 km
Semi-major
6,840.9 km
B*
-7.4821e-6
RAAN
204.7993°
Arg perigee
93.2150°
Mean anomaly
266.8997°
Rev number
12,690

§ Raw data

STARLINK-320011 60110U 24117V   26264.47942483 -.00000629  00000+0 -74821-5 0  99992 60110  53.1585 204.7993 0001259  93.2150 266.8997 15.34393980126908

JSON: /api/v1/satellites/60110 · /tle

For live sub-satellite position, see the globe view (requires WebGL).

§ Visibility from observer

Set your observer location to see the next 7 days of passes ≥ 10°. The values pass through the URL so the page stays shareable.

No JS? Fill the form by hand. The geolocation button needs JavaScript.